Change the Weather History Date:

Wednesday, October 10, 2012

  Actual Average (KTUL) Record (KTUL)
Temperature  
Mean Temperature 52 °F 64 °F  
Max Temperature 66 °F 75 °F 95 °F (1963)
Min Temperature 37 °F 52 °F 30 °F (2000)
Degree Days  
Heating Degree Days 14 4  
Month to date heating degree days 33  
Since 1 July heating degree days 57  
Cooling Degree Days 0 2  
Month to date cooling degree days 33  
Year to date cooling degree days 1998  
Growing Degree Days 2 (Base 50)    
Moisture  
Dew Point 39 °F    
Average Humidity 57    
Maximum Humidity 94    
Minimum Humidity 28    
Precipitation  
Precipitation 0.00 in 0.12 in 1.83 in (1898)
Month to date precipitation 1.24  
Year to date precipitation 32.98  
Sea Level Pressure  
Sea Level Pressure 30.22 in    
Wind  
Wind Speed 7 mph (NE)    
Max Wind Speed 14 mph    
Max Gust Speed 20 mph    
Visibility 10 miles    
Events      
T = Trace of Precipitation, MM = Missing Value Source: NWS Daily Summary

Daily Weather History Graph

Daily Weather History Graph

Search for Another Location

Airport or City:

Trip Planner

Search our weather history database for the weather conditions in past years. The results will help you decide how hot, cold, wet, or windy it might be!

Date:

Astronomy

Oct. 10, 2012 Rise Set
Actual Time 7:25 AM CDT 6:51 PM CDT
Civil Twilight 6:59 AM CDT 7:17 PM CDT
Nautical Twilight 6:29 AM CDT 7:47 PM CDT
Astronomical Twilight 5:59 AM CDT 8:17 PM CDT
Moon 2:10 AM CDT (10/10) 3:47 PM CDT (10/10)
Length of Visible Light 12h 18m
Length of Day
11h 26m
Waning Crescent, 27% of the Moon is Illuminated
Oct 10
Waning Crescent
Oct 15
New
Oct 21
First Quarter
Oct 29
Full
Nov 6
Last Quarter

Hourly Weather History & Observations

Time (CDT) Temp. Windchill Dew Point Humidity Pressure Visibility Wind Dir Wind Speed Gust Speed Precip Events Conditions
12:15 AM 53.6 °F - 51.8 °F 94% 30.12 in 7.0 mi NNE 5.8 mph - N/A   Clear
12:35 AM 53.6 °F - 51.8 °F 94% 30.13 in 7.0 mi North 8.1 mph - N/A   Clear
12:55 AM 53.6 °F - 51.8 °F 94% 30.13 in 10.0 mi NNE 5.8 mph - N/A   Clear
1:15 AM 53.6 °F - 50.0 °F 88% 30.14 in 10.0 mi NNE 6.9 mph - N/A   Clear
1:35 AM 53.6 °F - 48.2 °F 82% 30.15 in 10.0 mi NNE 4.6 mph - N/A   Mostly Cloudy
1:55 AM 53.6 °F - 46.4 °F 77% 30.16 in 10.0 mi NNE 6.9 mph - N/A   Mostly Cloudy
2:15 AM 53.6 °F - 44.6 °F 72% 30.17 in 10.0 mi NNE 8.1 mph - N/A   Scattered Clouds
2:35 AM 51.8 °F - 44.6 °F 76% 30.19 in 10.0 mi North 8.1 mph - N/A   Clear
2:55 AM 51.8 °F - 44.6 °F 76% 30.18 in 10.0 mi NNE 10.4 mph 16.1 mph N/A   Clear
3:15 AM 51.8 °F - 44.6 °F 76% 30.18 in 10.0 mi NNE 9.2 mph - N/A   Clear
3:35 AM 51.8 °F - 42.8 °F 71% 30.19 in 10.0 mi NNE 8.1 mph - N/A   Clear
3:55 AM 50.0 °F - 42.8 °F 76% 30.19 in 10.0 mi NNE 9.2 mph - N/A   Clear
4:15 AM 50.0 °F - 42.8 °F 76% 30.19 in 10.0 mi NE 9.2 mph - N/A   Clear
4:35 AM 48.2 °F - 41.0 °F 76% 30.20 in 10.0 mi NE 6.9 mph - N/A   Clear
4:55 AM 48.2 °F - 41.0 °F 76% 30.22 in 10.0 mi NE 8.1 mph - N/A   Clear
5:15 AM 50.0 °F - 41.0 °F 71% 30.22 in 10.0 mi NE 6.9 mph - N/A   Clear
5:35 AM 46.4 °F 43.5 °F 41.0 °F 81% 30.23 in 10.0 mi NNE 5.8 mph - N/A   Clear
5:55 AM 44.6 °F 41.4 °F 37.4 °F 76% 30.24 in 10.0 mi NNE 5.8 mph - N/A   Clear
6:15 AM 44.6 °F 42.2 °F 37.4 °F 76% 30.25 in 10.0 mi NNE 4.6 mph - N/A   Clear
6:35 AM 42.8 °F 40.1 °F 37.4 °F 81% 30.26 in 10.0 mi North 4.6 mph - N/A   Clear
6:55 AM 41.0 °F 39.0 °F 37.4 °F 87% 30.26 in 10.0 mi NNE 3.5 mph - N/A   Clear
7:15 AM 42.8 °F - 37.4 °F 81% 30.26 in 10.0 mi Calm Calm - N/A   Clear
7:35 AM 41.0 °F - 37.4 °F 87% 30.28 in 10.0 mi Calm Calm - N/A   Clear
7:55 AM 37.4 °F 34.9 °F 35.6 °F 93% 30.28 in 10.0 mi NNE 3.5 mph - N/A   Clear
8:15 AM 41.0 °F 37.1 °F 37.4 °F 87% 30.28 in 10.0 mi NE 5.8 mph - N/A   Clear
8:35 AM 44.6 °F 42.2 °F 39.2 °F 81% 30.28 in 10.0 mi NE 4.6 mph - N/A   Clear
8:55 AM 48.2 °F - 39.2 °F 71% 30.29 in 10.0 mi NE 4.6 mph - N/A   Clear
9:15 AM 51.8 °F - 37.4 °F 58% 30.29 in 10.0 mi NE 8.1 mph - N/A   Clear
9:35 AM 53.6 °F - 41.0 °F 62% 30.30 in 10.0 mi ENE 6.9 mph - N/A   Clear
10:15 AM 55.4 °F - 41.0 °F 58% 30.31 in 10.0 mi East 10.4 mph - N/A   Clear
10:35 AM 57.2 °F - 37.4 °F 48% 30.32 in 10.0 mi ENE 10.4 mph - N/A   Clear
10:55 AM 59.0 °F - 35.6 °F 42% 30.32 in 10.0 mi ENE 12.7 mph 16.1 mph N/A   Clear
11:15 AM 59.0 °F - 35.6 °F 42% 30.32 in 10.0 mi ENE 11.5 mph - N/A   Clear
11:35 AM 60.8 °F - 35.6 °F 39% 30.32 in 10.0 mi East 10.4 mph 16.1 mph N/A   Clear
12:15 PM 62.6 °F - 33.8 °F 34% 30.31 in 10.0 mi ENE 10.4 mph 17.3 mph N/A   Clear
12:35 PM 62.6 °F - 33.8 °F 34% 30.31 in 10.0 mi ENE 10.4 mph - N/A   Clear
12:55 PM 62.6 °F - 33.8 °F 34% 30.30 in 10.0 mi NE 11.5 mph 18.4 mph N/A   Clear
1:15 PM 64.4 °F - 32.0 °F 30% 30.29 in 10.0 mi ENE 10.4 mph 17.3 mph N/A   Clear
1:35 PM 64.4 °F - 33.8 °F 32% 30.28 in 10.0 mi NE 6.9 mph 19.6 mph N/A   Clear
1:55 PM 64.4 °F - 33.8 °F 32% 30.27 in 10.0 mi ENE 13.8 mph - N/A   Clear
2:15 PM 64.4 °F - 33.8 °F 32% 30.25 in 10.0 mi NE 9.2 mph - N/A   Clear
2:35 PM 64.4 °F - 33.8 °F 32% 30.24 in 10.0 mi ENE 11.5 mph 16.1 mph N/A   Clear
2:55 PM 64.4 °F - 33.8 °F 32% 30.23 in 10.0 mi East 11.5 mph 17.3 mph N/A   Clear
3:15 PM 64.4 °F - 33.8 °F 32% 30.23 in 10.0 mi ENE 8.1 mph - N/A   Clear
3:35 PM 64.4 °F - 33.8 °F 32% 30.22 in 10.0 mi East 9.2 mph - N/A   Clear
3:55 PM 66.2 °F - 32.0 °F 28% 30.22 in 10.0 mi NE 8.1 mph - N/A   Clear
4:15 PM 66.2 °F - 32.0 °F 28% 30.21 in 10.0 mi ENE 11.5 mph - N/A   Clear
4:35 PM 66.2 °F - 33.8 °F 30% 30.20 in 10.0 mi East 6.9 mph - N/A   Clear
4:55 PM 64.4 °F - 33.8 °F 32% 30.20 in 10.0 mi ENE 5.8 mph 9.2 mph N/A   Clear
5:35 PM 64.4 °F - 35.6 °F 34% 30.19 in 10.0 mi ENE 6.9 mph - N/A   Clear
6:15 PM 62.6 °F - 35.6 °F 37% 30.18 in 10.0 mi ENE 6.9 mph - N/A   Overcast
6:35 PM 62.6 °F - 35.6 °F 37% 30.18 in 10.0 mi ENE 4.6 mph - N/A   Overcast
6:55 PM 62.6 °F - 35.6 °F 37% 30.18 in 10.0 mi ENE 5.8 mph - N/A   Mostly Cloudy
7:15 PM 60.8 °F - 35.6 °F 39% 30.17 in 10.0 mi ENE 5.8 mph - N/A   Mostly Cloudy
7:35 PM 59.0 °F - 37.4 °F 45% 30.17 in 2.0 mi NE 4.6 mph - N/A   Haze
8:15 PM 57.2 °F - 37.4 °F 48% 30.17 in 10.0 mi ENE 4.6 mph - N/A   Mostly Cloudy
8:55 PM 57.2 °F - 37.4 °F 48% 30.17 in 10.0 mi ENE 5.8 mph - N/A   Overcast
9:15 PM 59.0 °F - 37.4 °F 45% 30.17 in 7.0 mi ENE 4.6 mph - N/A   Overcast
9:35 PM 59.0 °F - 39.2 °F 48% 30.17 in 10.0 mi ENE 3.5 mph - N/A   Overcast
10:15 PM 59.0 °F - 39.2 °F 48% 30.17 in 10.0 mi East 4.6 mph - N/A   Overcast
10:35 PM 59.0 °F - 39.2 °F 48% 30.17 in 10.0 mi East 5.8 mph - N/A   Overcast
10:55 PM 60.8 °F - 39.2 °F 45% 30.17 in 10.0 mi ESE 5.8 mph - N/A   Overcast
11:35 PM 59.0 °F - 41.0 °F 51% 30.17 in 10.0 mi ESE 4.6 mph - N/A   Overcast
11:55 PM 59.0 °F - 41.0 °F 51% 30.17 in 10.0 mi ESE 4.6 mph - N/A   Overcast